Location: East Irvine
(33.6759°N, 117.7598°W)
Time: 01:24:17
(UTC+00:00)

SL-16 R/B - Pass Details

Date: 15 November 2025
Orbit: 985 x 1006 km, 99.8° (Epoch: 07 December)

Event Time Altitude Azimuth Distance (km) Brightness Sun altitude
Rises 01:14:25 0° 3° (N) 3,739 5.3 -5.9°
Reaches altitude 10° 01:17:07 10° 355° (N) 2,784 4.8 -6.5°
Maximum altitude 01:22:39 35° 292° (WNW) 1,576 4.2 -7.5°
Drops below altitude 10° 01:28:09 10° 230° (SW) 2,763 6.1 -8.6°
Sets 01:30:50 0° 221° (SW) 3,706 6.6 -9.2°
